This is the latest recevied weather packets stored in our database for station/object KA6UPU-1. If no packets are shown the sender has not sent any weather packets the latest 10 day(s).
| Time | Temp. | Humidity | Pressure | Rain* | Wind** | Luminosity | Snow |
|---|---|---|---|---|---|---|---|
| 1788129775 | 28.89° C | 37% | 1010.8 hPa | 0 mm | - | - | - |
| 1788129474 | 28.89° C | 37% | 1010.8 hPa | 0 mm | - | - | - |
| 1788129174 | 28.89° C | 36% | 1010.8 hPa | 0 mm | - | - | - |
| 1788128874 | 28.89° C | 36% | 1011 hPa | 0 mm | - | - | - |
| 1788128574 | 28.89° C | 37% | 1011 hPa | 0 mm | - | - | - |
| 1788128274 | 28.89° C | 37% | 1011.1 hPa | 0 mm | - | - | - |
| 1788127974 | 28.89° C | 37% | 1011.2 hPa | 0 mm | - | - | - |
| 1788127674 | 28.89° C | 38% | 1011.2 hPa | 0 mm | - | - | - |
| 1788127374 | 28.89° C | 38% | 1011.4 hPa | 0 mm | - | - | - |
| 1788126774 | 28.89° C | 39% | 1011.5 hPa | 0 mm | - | - | - |
| 1788126474 | 28.89° C | 40% | 1011.6 hPa | 0 mm | - | - | - |
| 1788125574 | 28.89° C | 41% | 1011.9 hPa | 0 mm | - | - | - |
| 1788125273 | 28.89° C | 41% | 1011.9 hPa | 0 mm | - | - | - |
| 1788124974 | 28.89° C | 42% | 1011.8 hPa | 0 mm | - | - | - |
| 1788124673 | 28.89° C | 40% | 1011.9 hPa | 0 mm | - | - | - |
| 1788123477 | 27.78° C | 42% | 1012.1 hPa | 0 mm | - | - | - |
| 1788123177 | 27.78° C | 42% | 1012.2 hPa | 0 mm | - | - | - |
| 1788122877 | 27.22° C | 43% | 1012.2 hPa | 0 mm | - | - | - |
| 1788122577 | 27.22° C | 43% | 1012.3 hPa | 0 mm | - | - | - |
| 1788121677 | 27.78° C | 44% | 1012.4 hPa | 0 mm | - | - | - |
| 1788120777 | 27.22° C | 45% | 1012.6 hPa | 0 mm | - | - | - |
| 1788120177 | 26.67° C | 47% | 1012.7 hPa | 0 mm | - | - | - |
| 1788119877 | 26.11° C | 47% | 1012.7 hPa | 0 mm | - | - | - |
| 1788118977 | 26.11° C | 47% | 1012.8 hPa | 0 mm | - | - | - |
| 1788118677 | 25.56° C | 49% | 1012.9 hPa | 0 mm | - | - | - |
* Rain latest hour (hover to see other rain measurements)
** Current wind speed in m/s (hover to see current wind gust speed)